Theta_e
316 315 314 314 314 313 312 313 312 309 307 304 303 302 301 301 302 302 301 301 300 300 299 299 300 301 301 300 299 299 299 300 301 301 301 302 305 310 317 322 325 324 323 323 322 323 323 322 321 319 318 317 316 316 316 315 314 314 314 313 313 313 312 311 311 311 311 311 311 311 311 311 311 312 312 313 312 311 312 311 311 311 311 311 311
316 315 314 313 313 312 312 311 311 307 306 304 302 301 301 300 301 302 301 300 300 299 299 298 298 298 298 299 298 298 297 297 297 297 297 299 301 304 312 317 323 324 323 321 322 323 321 319 318 319 317 317 316 315 315 315 314 314 313 313 312 312 311 311 310 310 310 310 310 310 310 311 310 310 310 311 311 311 310 310 311 311 310 310 310
317 315 314 313 312 312 312 311 309 306 306 304 302 301 300 301 301 302 301 300 299 298 299 297 296 297 297 297 296 296 296 296 296 296 296 296 297 299 303 312 317 322 323 321 321 320 319 319 318 318 317 316 316 315 315 315 314 313 313 312 312 311 311 310 310 310 310 309 309 309 309 310 310 310 310 310 310 310 310 310 310 309 310 309 309
317 315 314 312 311 311 311 310 309 305 306 303 302 301 300 299 299 300 299 299 297 296 297 297 296 296 296 295 295 294 293 294 294 294 294 294 295 296 298 302 310 314 318 322 320 320 319 319 318 317 317 317 317 316 314 314 314 313 312 312 312 311 310 310 309 309 309 309 309 309 309 309 309 310 310 309 309 310 309 309 309 309 309 309 308
318 316 313 313 311 310 309 309 308 305 306 303 301 299 298 297 297 297 297 297 297 296 296 295 295 294 294 294 294 293 293 292 292 292 292 293 293 293 295 296 297 306 311 316 320 319 318 317 317 318 317 316 315 315 314 313 312 312 313 312 312 311 310 309 309 309 309 309 308 308 308 308 309 309 309 308 309 309 308 308 308 308 309 309 308
319 317 315 313 311 310 310 309 307 306 306 303 300 298 297 297 295 296 297 297 296 296 295 293 293 293 293 292 292 292 292 292 291 290 291 292 292 293 293 293 294 295 299 308 312 318 316 316 315 315 314 315 314 314 313 313 312 311 311 311 312 311 310 309 309 308 308 308 308 308 308 308 309 309 309 308 308 308 308 308 308 308 308 308 308
319 318 315 314 312 310 310 311 309 309 307 303 300 297 297 296 295 295 295 294 294 295 295 293 293 293 292 292 291 291 291 291 291 291 291 291 291 291 291 291 292 293 294 295 301 308 315 319 314 315 313 313 315 313 313 312 311 311 310 310 310 310 310 309 309 308 308 307 307 307 307 308 308 308 308 307 308 307 307 307 307 307 307 307 307
319 318 316 314 312 310 310 310 309 309 307 305 301 298 296 296 295 296 294 293 294 294 295 293 292 292 291 291 291 291 290 290 290 290 290 290 290 290 290 290 290 292 294 292 294 300 308 313 316 318 314 312 312 313 313 312 311 311 310 310 310 309 309 309 308 307 307 306 306 306 307 307 307 307 308 307 307 307 307 307 306 306 307 307 306
320 318 316 314 313 311 310 310 309 309 308 305 302 300 298 296 295 296 296 294 294 293 293 293 292 291 291 291 290 290 290 290 290 290 291 290 289 289 289 289 290 291 288 288 289 292 301 307 309 310 312 317 311 313 313 312 311 311 310 310 310 309 308 307 306 306 305 306 305 306 305 306 306 306 306 306 306 306 306 306 306 306 306 306 306
322 319 317 315 314 312 310 309 309 310 308 306 303 300 299 298 296 296 296 295 294 293 293 292 292 291 290 290 290 290 290 290 290 291 289 289 288 288 287 287 287 287 287 286 286 288 288 295 301 302 306 312 315 317 315 312 312 311 311 309 308 308 307 306 306 305 305 305 305 305 305 306 306 306 305 305 306 306 306 305 306 305 306 305 306
324 321 318 316 315 314 310 310 308 309 308 306 303 300 298 298 297 296 296 296 295 294 294 293 292 291 290 289 290 290 289 290 289 288 288 288 290 290 288 287 286 286 286 284 284 285 287 286 286 287 292 306 310 314 315 316 310 310 310 309 308 308 306 306 306 306 305 305 304 304 305 305 305 306 306 305 305 305 305 305 306 305 305 305 305
327 324 321 317 316 316 312 310 309 309 309 307 303 300 298 297 297 295 294 293 294 294 293 291 290 289 289 289 289 289 289 289 289 288 289 290 287 287 287 286 286 285 285 284 283 283 284 284 287 285 286 295 304 306 310 312 313 314 309 310 309 308 307 306 305 305 305 305 304 304 304 304 304 305 304 305 305 306 305 305 305 305 305 305 305
327 326 324 320 319 319 317 313 311 309 308 307 306 301 300 298 297 295 294 292 292 293 292 292 290 289 288 288 288 289 290 289 287 287 287 287 287 287 287 286 285 285 285 284 283 283 283 283 283 284 285 284 289 299 302 304 310 313 314 311 309 308 308 307 306 305 303 303 304 304 304 303 304 305 305 305 305 304 305 305 305 305 305 306 305
327 328 326 324 321 320 318 315 313 311 309 309 307 302 300 298 296 294 295 293 292 292 292 293 290 290 287 286 291 289 290 288 287 287 286 286 286 286 285 285 285 285 284 284 283 282 282 282 282 283 283 284 284 285 289 290 296 308 312 313 311 309 308 307 307 306 304 303 304 303 303 304 304 304 304 305 305 305 305 305 305 305 305 305 305
330 327 327 326 324 322 320 318 315 313 311 309 306 303 301 298 296 295 293 294 292 293 292 295 291 290 290 288 288 285 287 287 286 285 285 284 285 285 285 284 285 284 284 282 281 281 282 281 282 282 282 282 282 283 286 290 293 300 304 305 310 308 308 307 307 306 305 304 303 303 304 304 304 304 304 304 304 305 304 305 305 304 305 304 305
329 328 327 327 326 324 322 319 317 315 312 310 307 304 301 299 296 296 295 292 291 290 292 293 292 291 289 289 286 285 284 286 284 284 285 284 284 284 285 284 283 283 282 281 282 281 281 281 281 281 282 281 281 283 285 285 292 295 295 297 302 308 308 307 307 306 305 305 304 303 304 304 304 304 304 304 304 304 304 304 304 304 304 304 304
329 328 325 327 326 325 323 321 318 316 314 312 308 306 302 300 297 296 295 295 291 291 291 292 292 296 293 287 285 285 286 286 284 284 284 284 283 283 284 284 283 282 282 282 283 282 281 280 280 281 281 281 281 282 282 283 284 289 286 289 295 300 306 307 306 305 305 305 304 304 304 303 304 304 303 303 304 304 304 303 304 304 304 304 304
325 327 327 325 326 326 325 323 320 318 315 314 311 308 304 300 298 298 296 297 295 291 290 291 293 293 295 295 293 293 289 284 286 285 284 284 283 283 283 284 284 283 283 283 283 282 282 281 280 281 281 281 282 282 282 282 286 282 279 285 301 298 299 303 306 305 305 305 304 304 303 303 302 302 302 303 304 303 303 303 303 303 304 304 304
320 322 325 325 326 326 324 322 320 318 314 314 312 309 306 302 300 299 298 298 297 293 291 290 292 292 293 293 293 292 290 286 287 284 282 282 282 282 283 285 284 283 283 283 283 282 281 281 281 281 281 282 282 282 282 283 290 287 295 297 300 299 298 298 298 301 303 304 304 302 302 302 302 302 302 302 302 302 303 302 302 303 303 303 303
319 318 319 320 319 321 321 320 319 319 315 314 313 310 307 304 301 301 300 299 298 297 294 292 290 291 292 292 291 292 290 292 290 291 288 283 283 283 283 284 284 283 283 283 282 282 282 282 281 281 281 282 282 282 283 283 283 285 288 297 300 301 299 298 298 297 298 299 300 301 302 301 301 301 301 301 302 302 302 302 302 302 303 303 303
315 316 316 316 315 317 318 317 317 317 312 315 313 310 307 304 301 300 300 299 299 299 297 294 292 293 291 291 292 291 290 290 289 289 287 288 287 283 282 282 283 284 284 284 283 282 283 283 282 282 283 282 282 282 283 283 283 284 288 295 298 301 301 300 298 298 298 298 299 299 299 300 300 301 301 301 301 301 301 302 302 302 303 303 302
312 312 313 313 313 313 314 315 316 317 312 314 313 310 307 305 303 301 301 300 300 299 298 297 294 296 295 294 292 290 290 288 288 287 286 288 290 284 284 282 281 284 285 284 282 282 282 282 282 283 283 282 282 282 283 283 283 284 286 292 296 298 299 300 300 299 299 298 298 298 299 299 299 300 300 300 301 301 302 302 302 302 303 302 302
311 310 311 312 312 311 312 313 314 312 312 313 313 312 309 307 305 303 302 301 300 299 298 299 296 296 296 295 294 292 291 289 287 286 288 285 286 286 284 284 284 284 284 284 283 282 282 281 282 283 283 282 282 282 282 282 285 286 288 292 294 296 297 299 299 299 299 298 298 298 298 298 298 298 299 300 301 301 302 302 302 302 302 302 302
306 308 308 308 309 310 309 311 311 313 313 313 314 313 311 308 306 304 302 302 302 300 299 299 298 296 296 296 296 295 294 294 294 290 289 290 291 289 285 282 282 283 283 283 283 283 282 282 283 283 283 282 282 282 282 282 284 288 288 290 293 295 297 297 297 296 296 296 296 296 297 297 297 297 297 298 300 301 302 302 302 302 302 302 302
303 306 308 307 308 309 310 310 311 311 312 314 314 313 311 309 307 305 303 302 302 301 300 299 299 297 297 297 297 296 294 295 295 292 291 292 290 287 284 284 283 284 282 283 282 283 283 283 283 283 283 283 283 283 282 282 282 286 289 288 292 294 294 295 295 296 296 296 297 298 297 296 295 296 297 298 299 301 302 302 302 303 302 302 302
302 303 306 307 306 307 308 309 309 309 310 311 312 313 311 310 308 306 304 304 303 302 301 300 300 300 299 297 296 296 295 295 296 291 290 289 287 287 283 283 284 283 284 283 284 283 284 284 284 283 283 283 283 283 282 282 282 286 289 285 288 293 294 294 294 295 295 295 295 294 294 295 296 297 297 299 299 300 301 302 302 302 302 302 302
301 302 300 302 304 305 305 306 306 307 308 308 309 310 310 309 308 307 306 305 303 302 302 301 300 300 299 298 297 297 297 296 296 293 291 291 290 288 285 283 283 283 282 283 281 282 282 283 284 283 283 283 283 282 282 282 283 286 288 286 283 288 292 293 294 295 294 294 294 294 295 295 295 296 296 296 297 297 298 300 301 302 302 301 301
300 299 299 300 301 301 302 303 304 306 308 308 308 308 308 307 306 305 304 304 303 302 302 302 301 300 300 299 298 297 297 297 295 294 291 291 291 289 289 289 287 284 282 279 279 280 283 281 283 284 284 284 284 283 284 283 282 286 287 285 284 284 288 291 294 294 294 294 294 294 294 294 295 295 295 294 295 295 296 297 297 297 297 297 298
299 298 299 298 299 300 300 300 301 304 306 307 307 307 307 305 305 304 303 303 302 302 302 301 301 301 300 299 298 298 297 296 293 292 291 291 291 290 291 291 291 290 283 280 280 279 281 283 281 283 284 284 284 284 283 282 283 285 284 283 283 282 285 289 292 293 293 294 294 294 294 294 294 294 294 294 295 295 295 295 296 296 296 297 298
298 298 298 298 298 297 299 299 299 300 302 304 305 305 305 304 304 304 304 303 302 301 300 301 300 300 299 297 296 296 293 292 292 291 290 291 289 289 290 291 291 291 288 285 285 282 281 282 282 281 283 284 284 283 283 282 285 285 283 283 282 282 286 288 290 291 292 293 293 293 294 293 293 293 293 293 293 294 294 295 295 296 297 297 299
296 296 296 296 295 296 296 297 297 299 300 301 302 302 303 302 301 301 300 301 300 299 298 298 298 297 296 296 295 294 292 292 292 291 290 290 290 289 288 288 288 290 289 286 285 285 282 281 282 282 282 283 284 283 283 283 284 285 282 282 282 285 286 286 288 290 291 291 292 292 293 293 293 293 293 292 293 294 294 295 295 295 296 297 298
296 296 296 294 294 294 293 294 294 294 296 297 298 299 298 299 298 297 297 297 297 297 297 296 297 296 295 295 294 294 294 292 291 291 290 290 290 289 288 287 287 288 289 287 285 286 282 283 282 282 282 283 283 283 282 282 284 286 282 282 282 285 284 283 286 288 289 290 291 292 292 292 292 292 292 292 293 293 294 294 295 295 296 296 297
293 293 293 294 294 293 293 293 293 293 294 295 295 295 295 295 295 295 295 295 296 296 295 294 294 294 294 295 295 294 294 293 292 291 290 290 289 289 288 287 287 287 287 287 285 284 280 280 281 281 282 282 281 282 282 282 282 283 284 282 282 282 282 282 282 284 286 287 289 289 290 291 291 291 292 292 292 293 293 294 295 295 294 295 295
292 293 293 293 292 293 293 294 292 292 293 295 294 294 294 295 295 296 295 294 295 295 294 295 294 294 294 294 295 294 293 293 292 291 290 289 288 288 287 287 287 286 286 286 285 283 281 278 279 281 280 282 280 282 281 281 281 281 281 281 282 282 281 281 281 281 284 286 288 289 290 291 291 291 292 291 292 293 293 293 292 292 293 293 293
290 292 293 292 292 292 293 292 292 292 292 292 293 293 294 294 295 294 294 294 294 295 294 294 294 293 293 293 294 295 293 291 292 291 290 289 288 288 287 286 286 286 285 286 284 282 281 279 280 279 280 280 280 280 281 282 281 281 280 281 281 282 282 281 281 281 284 286 288 289 289 290 290 290 290 291 291 291 291 290 290 290 290 291 291
291 290 291 292 292 292 292 292 292 292 292 292 292 292 294 294 294 295 295 294 294 295 295 295 294 293 293 293 293 293 291 290 290 289 288 288 287 287 287 286 286 285 285 284 284 283 280 279 279 279 280 280 279 280 281 281 280 280 280 280 281 280 280 281 280 280 282 285 287 287 288 289 289 289 289 289 289 289 289 289 289 290 290 289 289
291 290 290 290 291 291 292 292 292 292 292 293 293 291 292 293 294 294 295 294 294 294 295 295 293 294 293 293 293 293 290 289 289 287 286 286 287 286 286 285 285 285 283 283 282 281 281 280 279 277 279 278 277 279 280 279 278 278 278 278 279 279 279 279 280 280 282 285 285 286 286 287 286 287 287 287 287 288 288 288 288 288 287 287 286
291 290 291 290 291 291 292 292 293 293 293 293 292 292 292 292 293 293 294 294 294 294 294 294 294 293 293 293 293 291 289 289 288 287 286 285 285 285 285 284 284 283 282 282 282 281 282 280 279 277 278 277 277 276 278 278 278 277 276 276 276 277 277 277 278 279 278 278 278 279 281 282 283 285 286 286 287 287 287 287 286 286 285 285 285
291 291 290 290 290 291 292 292 292 293 293 292 291 291 291 292 292 292 292 292 292 292 293 293 293 292 292 292 291 290 289 289 288 286 285 285 284 284 285 284 283 282 282 281 280 280 280 279 278 278 278 278 278 277 277 278 277 278 278 277 278 278 277 277 277 278 279 279 281 283 283 283 284 283 284 285 286 285 285 285 285 284 284 284 285
290 290 290 290 290 290 291 291 292 292 292 292 292 291 291 292 291 291 291 291 291 291 291 291 291 291 291 290 290 289 288 288 288 287 285 284 284 284 284 283 282 282 281 281 281 281 280 279 279 277 277 277 277 277 277 277 277 277 277 277 278 277 277 277 276 277 278 278 277 277 279 280 280 281 283 283 283 284 284 283 283 283 283 283 284
289 290 290 289 289 289 289 290 290 290 292 292 292 291 291 291 291 291 291 291 290 290 290 290 289 289 289 289 289 288 287 287 287 287 286 286 284 283 283 282 282 282 282 281 281 281 280 280 278 278 277 277 277 277 276 277 277 278 278 277 277 277 277 276 277 278 278 277 276 276 275 277 277 277 277 276 277 280 280 282 282 282 282 284 285
289 288 288 289 289 289 289 289 289 290 291 292 290 291 292 291 290 291 291 290 290 290 290 289 288 287 287 288 287 286 286 286 286 287 287 287 286 286 283 282 282 283 282 281 281 281 280 279 279 278 277 277 277 278 278 278 279 279 277 276 276 276 275 276 276 277 277 276 274 274 276 277 276 276 275 275 276 278 278 277 277 280 282 284 285
288 288 288 288 288 289 289 289 289 289 290 290 290 292 293 293 291 290 289 289 289 289 289 289 288 287 286 286 286 286 285 285 286 286 287 287 287 286 285 285 285 284 283 282 281 281 281 281 280 279 280 279 278 278 279 279 279 279 279 277 277 276 275 274 274 276 278 276 275 274 275 276 276 275 275 275 276 277 277 277 282 283 283 284 285
288 287 287 288 288 288 289 288 289 289 289 290 292 292 292 293 292 290 290 289 288 288 288 288 288 287 286 285 285 285 285 285 285 285 286 286 286 286 286 286 286 286 287 284 282 281 281 280 279 280 280 280 279 279 279 279 279 279 279 278 277 276 275 274 275 274 278 277 276 274 274 275 275 276 275 275 276 276 276 280 283 283 284 284 284
285 286 287 287 287 287 288 288 288 288 288 290 291 292 292 292 293 291 289 288 288 287 288 287 287 286 285 284 283 282 283 284 284 284 284 284 285 285 285 286 286 287 287 288 287 284 283 282 281 279 280 281 280 280 280 280 281 279 278 277 277 277 277 276 276 277 279 278 275 273 272 274 274 273 274 275 276 275 276 281 282 283 284 284 284
286 286 286 286 287 287 287 287 288 288 287 289 291 291 291 291 292 292 288 287 287 287 287 287 286 286 285 283 282 281 282 282 283 283 283 283 283 283 283 284 284 285 286 287 286 285 285 284 282 281 281 282 282 281 281 282 280 279 277 277 277 277 277 277 279 279 278 277 275 273 269 271 273 274 274 274 276 275 276 279 282 283 283 283 283
286 286 286 286 286 286 286 286 287 287 287 289 290 291 291 291 292 292 288 287 287 286 286 286 286 285 284 283 282 281 281 282 282 283 283 283 282 283 283 283 283 284 283 283 283 283 283 283 284 283 282 282 282 282 281 282 281 280 280 278 279 279 279 277 274 274 275 275 274 274 268 273 273 274 275 275 275 275 275 279 281 281 282 281 281
285 285 285 285 286 286 286 285 285 285 286 289 289 290 290 291 291 289 288 286 286 286 285 285 285 284 284 283 282 281 281 281 283 285 284 283 282 282 282 282 282 283 283 284 285 284 283 283 282 282 282 282 284 282 281 281 280 280 280 280 279 276 275 274 273 271 272 275 275 274 272 272 274 274 274 274 273 272 273 273 279 280 280 280 280
285 284 285 285 285 285 284 284 284 285 285 287 289 289 290 291 290 288 287 286 285 285 285 284 283 282 282 282 282 281 281 281 284 286 286 284 282 282 281 281 281 281 281 284 286 286 286 286 286 286 286 286 286 286 286 285 283 281 279 278 277 275 274 273 275 274 272 274 275 277 276 273 273 273 272 273 272 272 272 272 271 277 278 278 278
284 285 284 284 283 283 284 284 284 284 284 285 288 289 289 290 289 287 286 285 285 284 283 282 282 281 281 282 282 282 281 282 285 286 286 284 282 282 281 280 280 280 280 281 283 284 286 286 286 286 286 286 286 286 286 286 286 284 279 277 276 275 275 276 273 272 272 274 275 276 273 273 272 273 271 270 270 267 270 270 271 273 275 274 276
284 283 282 282 282 282 282 283 283 284 283 284 287 288 289 289 289 287 286 285 284 283 282 281 281 281 281 282 282 282 282 283 286 287 287 284 283 283 282 281 280 280 280 280 280 281 282 282 283 283 283 285 284 282 283 285 284 282 281 280 278 277 275 273 271 272 272 274 274 276 271 271 271 271 271 267 265 267 267 268 270 269 269 270 270
Wind_Speed
6 5 4 4 4 5 5 5 4 5 5 5 5 6 5 5 6 6 5 6 6 5 5 4 4 4 4 4 3 3 3 4 4 4 3 4 5 7 9 7 11 13 14 15 13 13 13 13 12 12 11 11 11 11 12 12 12 12 12 12 12 12 12 11 12 12 12 13 13 13 14 14 14 14 14 14 14 15 16 16 16 16 16 17 16
7 5 6 6 5 4 5 5 5 5 5 6 5 5 6 5 5 5 5 5 6 5 5 5 5 4 4 4 4 3 3 3 3 4 3 4 5 6 10 9 9 13 13 13 13 13 12 11 11 12 11 11 11 11 11 11 11 11 11 11 11 11 11 11 11 11 12 12 12 12 13 12 13 13 14 14 14 14 15 15 14 15 15 15 15
7 7 6 6 6 6 6 5 5 5 5 5 4 5 5 6 6 6 6 5 5 4 5 6 5 5 4 4 3 4 4 4 3 2 3 4 5 4 6 10 10 6 9 10 13 12 11 11 10 11 10 10 10 10 10 11 10 11 11 11 10 10 10 10 10 10 11 11 12 11 12 12 12 13 13 13 13 13 14 13 14 14 14 14 15
8 7 7 7 7 6 6 6 5 5 5 5 5 5 5 4 4 5 5 5 5 4 3 6 5 4 4 4 3 4 4 3 3 3 4 4 4 4 4 5 9 11 8 9 14 11 12 11 12 10 9 10 11 10 10 10 10 10 10 10 10 9 9 9 9 10 10 10 10 10 11 11 11 11 11 12 12 13 13 13 13 13 13 13 13
8 9 8 7 7 7 6 6 5 5 5 5 6 5 5 5 5 4 5 5 6 5 4 4 5 4 4 4 3 4 3 3 3 3 4 4 4 4 4 3 4 9 10 11 5 13 12 11 11 13 13 9 9 9 9 9 8 8 9 9 9 9 9 9 8 9 9 9 9 9 9 10 10 10 11 11 11 11 12 12 12 12 12 12 13
8 8 8 7 7 8 8 7 6 5 5 6 6 6 6 6 6 6 5 6 6 5 5 5 4 4 4 3 4 3 3 4 3 3 3 4 3 4 4 4 5 4 5 8 11 9 6 10 8 7 7 10 8 9 8 9 8 5 8 8 9 9 8 8 7 8 8 8 8 8 8 9 9 9 9 10 10 10 11 11 11 11 11 12 12
9 9 9 8 9 8 8 8 7 7 6 5 6 5 6 7 7 7 5 5 5 5 5 5 4 4 4 3 4 3 3 3 3 3 3 2 3 3 4 4 4 3 4 4 7 9 11 6 5 11 7 8 12 8 9 9 8 7 5 4 7 8 8 7 7 7 7 7 7 7 7 7 8 8 8 9 9 9 10 10 11 11 11 11 12
10 9 9 8 8 9 10 8 8 7 6 6 6 7 6 6 5 7 8 5 6 5 4 6 4 4 3 3 3 3 3 2 3 3 2 3 3 3 3 3 3 4 3 4 4 6 9 9 13 12 4 6 8 9 9 9 8 8 8 8 7 6 8 7 7 7 6 6 6 6 6 6 6 7 7 8 8 8 9 9 9 10 11 11 11
11 11 9 9 8 7 7 11 11 9 8 8 7 6 8 7 6 5 7 7 7 7 5 5 5 4 3 3 3 3 3 2 2 2 2 3 3 3 3 3 2 3 3 3 3 4 6 10 11 10 11 7 2 10 10 9 10 9 9 9 8 7 7 6 5 6 6 6 4 4 4 4 5 6 6 6 7 7 7 7 8 9 10 11 11
11 11 9 8 8 7 7 7 8 10 10 9 9 8 8 9 8 6 6 7 7 8 7 6 5 4 4 3 2 2 2 2 1 1 2 3 2 3 2 2 2 2 2 2 3 3 3 6 8 9 9 8 8 10 4 11 10 11 9 9 8 8 6 7 7 6 4 4 4 3 3 3 4 4 5 5 6 6 6 6 7 8 9 10 11
11 11 11 11 9 8 7 7 7 7 8 8 6 7 7 8 11 9 5 4 5 5 5 5 6 5 4 4 3 3 2 2 2 1 2 2 2 1 1 2 2 2 2 2 2 3 4 3 3 4 4 9 10 10 11 6 11 10 10 8 9 10 7 6 7 8 7 5 1 2 1 3 3 4 4 5 5 6 7 7 8 8 9 10 10
11 9 9 9 10 10 11 12 12 9 8 10 9 9 11 11 9 11 9 5 4 5 6 7 6 6 5 4 4 4 3 2 2 1 0 1 2 2 2 0 2 2 1 1 1 2 3 3 3 3 3 6 9 9 10 11 6 4 5 13 11 10 11 8 6 4 5 6 5 1 2 2 3 3 4 5 6 7 7 8 9 9 10 10 11
10 11 10 8 8 8 6 5 7 11 10 11 11 12 12 11 9 8 12 9 4 6 7 7 8 5 3 3 3 2 2 2 1 1 2 2 1 2 2 3 2 2 0 0 1 2 2 3 3 3 4 4 3 7 8 9 8 5 7 3 12 10 12 10 9 6 3 2 2 3 2 2 4 4 5 5 6 7 8 9 9 10 10 11 12
8 9 10 10 9 8 9 10 9 9 10 9 8 7 6 5 7 6 3 9 8 10 9 9 3 7 6 3 3 3 1 3 4 4 2 2 2 2 2 3 4 4 2 1 1 1 1 2 3 3 3 3 3 3 4 5 5 7 7 8 1 12 10 11 9 8 7 4 3 3 2 2 4 5 5 6 7 8 8 9 10 11 11 11 12
10 10 11 11 10 9 9 8 11 11 9 8 9 10 10 10 10 10 8 3 3 6 10 10 6 5 4 6 2 1 4 3 3 5 3 3 2 3 3 3 4 2 1 1 2 1 1 1 2 3 3 3 3 3 3 3 3 6 6 7 9 1 11 9 9 8 7 6 5 5 4 4 5 5 6 7 7 8 9 10 10 11 12 12 13
8 9 8 9 13 14 13 12 12 11 12 12 11 12 11 10 10 9 11 9 6 9 10 9 7 12 5 4 3 3 2 12 10 4 4 5 5 6 4 5 4 3 1 3 4 3 2 1 2 2 3 3 3 3 3 1 2 4 4 5 6 7 2 10 10 8 7 7 5 4 6 6 6 6 6 7 8 9 9 10 11 12 12 13 14
9 10 9 9 8 8 9 11 12 13 12 12 13 15 16 16 17 14 14 14 11 8 10 11 10 9 7 6 2 1 9 1 5 5 4 5 6 4 4 5 5 4 4 5 3 3 3 2 3 2 3 3 3 3 3 1 1 1 2 2 3 5 6 2 6 7 7 6 5 5 6 7 7 7 7 8 9 9 10 11 12 12 13 14 15
6 8 10 9 9 9 10 10 12 13 13 14 14 12 13 14 16 15 15 13 13 11 11 10 9 11 8 1 5 7 6 5 6 7 1 5 3 4 6 7 6 6 6 6 6 5 4 5 4 5 4 4 4 4 4 4 2 1 2 2 2 0 1 2 2 5 5 5 5 6 8 8 8 8 8 9 9 10 11 12 13 13 14 15 16
7 7 8 11 12 12 10 10 9 9 8 9 11 14 15 16 13 13 15 12 10 12 14 13 7 9 11 8 2 1 3 9 8 4 2 3 5 6 7 6 5 6 7 7 7 6 5 5 6 6 6 5 5 5 5 5 5 4 5 5 6 6 4 2 1 2 4 5 7 8 8 8 8 9 9 10 11 11 12 12 13 14 14 16 17
7 6 6 6 6 6 7 7 8 9 11 11 11 10 9 9 13 15 12 12 14 14 14 11 16 14 13 11 5 2 3 2 1 9 5 6 7 4 4 6 5 8 8 8 9 8 8 7 6 6 6 6 6 6 6 5 5 4 4 7 8 8 7 6 5 6 6 7 8 8 8 9 9 10 10 11 11 12 12 13 14 14 14 16 17
6 6 5 5 5 6 6 6 6 6 7 9 10 11 13 13 12 11 12 12 12 11 8 12 14 12 10 10 6 5 2 3 2 3 6 6 5 8 9 3 5 9 9 8 8 7 8 8 7 7 7 6 6 6 6 6 6 5 5 9 10 9 9 9 8 8 8 7 7 8 9 9 10 10 11 11 12 12 13 13 14 15 15 16 17
6 6 6 5 5 4 4 5 7 8 8 9 10 11 10 11 13 14 14 15 12 13 14 12 13 11 12 12 11 5 2 5 6 7 5 4 7 8 9 11 11 13 9 10 10 8 7 7 7 7 6 6 6 6 6 7 6 6 6 10 10 10 10 10 10 10 9 8 8 8 9 9 10 10 11 12 12 13 14 14 15 15 16 18 18
5 6 6 5 6 5 5 5 4 3 5 7 9 9 12 14 15 15 14 16 14 14 13 12 11 12 11 11 14 15 16 15 14 10 8 6 2 6 6 11 14 7 6 10 7 7 7 6 8 7 6 6 6 6 6 7 7 7 10 11 11 11 11 10 10 10 10 10 10 10 10 10 10 11 12 12 13 14 15 15 16 16 17 18 19
4 5 6 6 6 6 6 6 6 6 6 5 7 8 7 8 9 11 13 13 11 11 12 13 13 11 12 11 12 12 10 9 8 10 11 10 10 7 5 3 3 7 1 4 5 7 8 8 7 7 7 7 6 6 6 7 7 11 8 10 12 13 13 13 12 12 12 11 11 11 10 10 10 11 12 13 14 15 16 16 17 17 18 19 20
7 8 7 8 8 9 9 9 9 8 8 8 8 8 8 10 11 11 11 13 13 12 11 13 14 13 15 14 11 10 12 10 6 9 9 7 6 6 1 3 6 4 4 4 6 7 9 10 9 9 8 7 6 6 6 6 6 9 10 7 13 13 13 13 13 13 12 11 11 11 11 11 11 12 12 13 14 15 16 17 18 18 19 20 20
8 9 8 8 8 8 8 8 8 7 8 9 10 10 10 10 11 13 14 14 13 15 15 15 13 14 10 9 11 11 11 10 10 6 9 8 8 10 6 1 1 2 1 3 1 3 7 10 9 8 8 8 8 7 6 7 6 9 11 8 10 13 13 12 12 11 11 10 11 11 12 11 12 12 12 14 15 16 17 18 18 18 20 20 21
8 8 5 7 8 8 8 9 8 8 8 8 8 8 10 10 11 13 13 12 13 13 13 15 15 14 14 12 11 11 12 10 10 12 9 12 11 9 10 7 3 2 4 3 4 10 7 3 10 10 10 9 9 8 8 7 7 10 12 8 6 9 12 12 12 12 12 11 11 11 11 11 11 12 12 13 15 16 17 18 18 19 20 20 21
6 5 6 7 8 8 9 9 9 9 9 9 8 8 8 8 9 9 12 9 11 12 13 13 15 16 15 13 10 12 11 10 11 11 9 9 8 8 10 10 9 7 3 5 6 9 8 6 4 10 10 10 9 9 8 9 7 11 11 6 6 6 10 12 12 12 12 11 11 12 12 11 12 12 13 14 15 16 16 17 17 18 19 20 20
6 6 7 7 8 8 9 9 8 8 9 9 9 8 8 8 9 9 10 9 9 12 12 12 13 13 12 14 13 12 11 9 8 8 8 7 8 8 10 12 11 10 5 7 9 9 5 11 7 8 12 10 9 7 8 9 8 9 7 6 6 5 7 11 12 12 12 12 12 12 12 12 12 12 13 14 14 15 16 16 17 18 19 19 20
7 7 7 8 8 8 8 8 8 8 8 8 8 7 7 7 8 9 10 9 11 9 10 11 12 10 11 10 10 10 7 8 9 9 7 7 7 8 10 8 8 12 9 9 9 8 5 6 9 5 8 11 9 8 8 8 9 10 6 6 6 6 8 11 11 11 12 12 13 13 13 13 13 12 13 14 15 15 16 16 17 18 19 20 21
7 7 7 8 8 8 8 8 7 8 8 8 7 7 7 8 8 8 7 8 9 10 10 10 10 9 10 12 10 10 7 9 8 8 7 8 9 8 8 8 8 10 9 8 5 2 6 7 7 4 5 9 8 7 5 5 7 10 7 6 6 7 8 7 10 11 12 12 12 13 13 13 12 12 13 15 15 16 16 17 17 18 19 20 21
8 7 8 8 8 8 8 8 8 7 7 7 7 7 6 7 7 7 7 7 9 10 9 9 8 9 11 12 11 11 9 7 7 8 9 8 8 9 9 9 9 8 8 8 10 6 2 3 3 4 5 8 8 9 7 5 6 11 6 6 5 5 5 4 7 11 11 11 12 12 12 13 13 13 14 15 16 16 17 17 18 19 20 20 20
6 8 8 8 8 8 8 9 9 8 8 8 7 6 7 8 7 7 6 7 9 9 8 9 8 9 10 11 11 11 9 9 9 8 9 10 9 9 9 9 9 8 9 10 10 7 1 2 1 3 2 5 5 6 7 6 6 5 4 4 4 4 4 4 4 6 8 10 11 11 12 12 13 13 14 15 15 16 16 17 18 18 18 19 20
7 9 9 8 8 8 9 9 9 8 8 8 7 7 8 9 9 7 7 8 9 9 8 10 9 9 9 11 11 10 9 11 9 9 9 10 10 9 9 10 10 9 8 9 8 6 4 1 1 1 3 3 4 4 8 8 6 4 5 4 3 3 4 3 3 3 6 8 10 11 12 12 13 13 14 14 15 16 16 17 17 17 18 18 19
6 8 8 8 8 8 9 9 9 9 8 8 7 8 9 9 9 8 8 9 10 11 11 11 11 9 10 11 12 11 8 10 10 10 9 10 9 10 10 8 8 8 7 6 4 5 6 5 3 3 4 3 3 5 6 4 5 5 5 4 4 3 2 2 3 3 6 9 10 11 12 12 13 13 13 14 14 14 15 15 16 16 17 18 19
8 7 7 8 8 8 9 9 9 9 8 8 8 8 10 9 9 10 9 10 10 11 11 11 10 10 12 11 12 11 9 11 11 9 8 8 8 9 8 7 7 7 8 6 4 5 4 6 3 5 4 5 1 4 5 4 5 4 4 3 3 2 2 2 3 4 5 9 10 11 12 12 12 12 12 13 13 13 13 14 15 16 17 17 17
8 6 7 6 8 9 10 10 10 9 9 8 9 9 9 8 9 10 10 10 11 11 11 11 11 11 12 13 12 11 10 11 9 9 8 11 9 9 9 8 8 8 8 8 6 5 6 8 5 2 3 2 2 4 5 6 4 4 3 2 2 3 2 3 2 3 5 9 9 10 9 10 10 10 11 11 12 13 14 14 15 15 15 16 17
7 8 9 8 9 10 9 9 9 10 9 9 9 10 9 9 9 10 10 10 10 10 10 10 10 10 11 12 11 10 11 12 12 11 10 11 9 9 9 8 9 8 7 6 8 8 9 8 8 5 2 4 3 3 2 4 6 4 3 2 1 2 3 2 3 3 2 3 3 3 4 5 6 9 9 10 13 13 13 14 14 15 15 16 17
8 9 8 9 9 9 9 9 10 9 9 9 9 9 9 9 9 9 9 9 9 9 9 9 9 9 10 10 10 10 11 12 11 11 11 9 9 10 11 11 9 9 8 7 6 7 7 7 3 3 5 3 4 4 2 3 4 3 5 3 2 1 2 2 3 1 2 3 4 6 5 4 5 4 8 11 12 12 12 13 14 15 15 16 17
10 10 9 10 9 8 10 9 9 8 8 9 10 9 9 9 9 9 9 9 9 9 8 8 8 9 9 9 9 10 11 11 11 10 10 10 8 9 9 8 9 11 9 8 8 6 6 5 4 5 2 4 4 4 3 4 4 1 2 4 5 3 3 2 3 2 1 1 3 2 2 2 3 6 8 9 10 11 11 11 12 14 16 16 16
8 9 8 8 8 9 9 9 9 8 9 10 9 9 9 9 9 9 9 9 9 9 9 8 8 8 8 8 8 9 10 12 14 12 12 12 11 10 9 10 11 10 8 8 7 6 5 6 4 4 5 5 5 6 5 5 6 6 4 5 3 3 2 1 3 2 4 2 2 1 2 2 2 4 4 4 5 5 6 10 9 12 14 16 16
8 8 8 7 9 10 9 9 8 8 9 8 10 14 12 9 9 9 8 9 9 9 9 9 8 7 8 8 8 11 12 13 13 14 15 16 15 12 13 12 11 10 10 9 9 9 9 9 8 8 6 6 7 7 7 4 4 5 5 4 4 2 1 3 3 3 2 3 1 2 5 3 2 4 3 4 4 3 4 5 6 9 12 15 17
9 8 7 8 10 9 10 10 10 10 9 9 13 15 16 16 10 9 9 9 8 9 8 9 9 9 7 6 6 8 10 10 11 14 14 15 13 9 11 13 12 14 13 12 10 9 10 9 7 7 8 7 6 5 5 5 5 6 5 5 5 4 4 2 4 3 1 4 1 1 3 3 2 4 4 4 4 4 4 5 11 13 14 16 17
8 6 8 10 10 9 8 9 10 10 10 10 14 16 17 18 15 11 9 8 8 9 9 9 8 8 8 7 7 6 7 8 7 8 9 11 10 8 11 11 11 9 10 14 12 9 9 9 8 8 7 6 6 6 5 6 6 5 5 5 5 5 5 3 3 2 1 5 2 1 5 4 3 5 4 4 5 5 5 8 12 14 14 16 18
5 8 10 9 10 9 9 10 11 10 10 12 15 17 16 17 18 14 8 8 8 9 9 9 9 9 8 7 6 5 5 9 7 7 8 8 10 14 14 12 11 14 10 12 13 14 10 10 10 7 7 6 6 6 7 7 6 7 5 5 5 4 4 4 4 2 2 2 1 2 3 4 2 2 5 5 5 4 5 8 12 13 14 17 17
8 9 8 10 10 10 11 11 11 10 10 11 16 16 16 17 17 15 8 8 8 8 9 9 9 9 8 8 7 7 6 7 6 9 9 9 9 10 9 8 6 8 9 11 8 7 8 9 9 9 6 5 7 5 6 7 8 7 7 6 5 4 4 4 2 2 2 1 1 1 2 3 2 2 5 5 4 4 5 7 11 14 15 15 16
9 10 10 10 11 10 10 10 10 10 10 12 15 16 17 17 16 15 9 8 8 8 7 8 8 8 8 8 9 8 8 8 7 9 10 10 11 11 11 10 8 7 6 7 7 7 5 5 6 5 7 5 4 6 6 5 6 5 6 5 5 4 2 2 2 0 2 2 2 1 3 2 2 2 4 3 3 4 5 6 10 14 13 13 14
7 7 8 8 10 10 10 9 10 11 9 13 15 16 17 15 15 10 8 8 8 7 7 7 7 7 7 8 8 8 9 10 11 17 14 10 10 11 10 9 7 6 4 4 7 7 6 6 5 6 6 6 6 6 6 6 5 4 4 4 4 3 3 2 3 2 2 4 3 3 3 3 1 2 2 2 2 2 3 4 7 7 9 12 15
8 9 10 9 9 9 9 10 11 11 9 12 15 16 15 14 11 7 7 7 7 8 8 6 7 7 7 8 7 8 9 9 13 18 17 16 10 11 11 10 8 7 7 6 9 10 10 10 11 11 10 10 9 10 10 11 8 6 5 5 4 4 4 3 3 2 3 2 1 1 3 4 1 2 5 2 1 6 5 3 1 6 10 13 15
9 10 8 8 8 8 10 11 11 11 10 10 14 15 15 16 13 9 8 8 8 8 6 6 6 7 8 12 10 9 8 8 15 19 20 15 13 14 14 13 11 9 7 5 5 6 10 10 10 9 9 9 10 10 11 11 13 10 6 6 4 5 4 3 3 2 3 1 3 3 1 3 2 4 6 5 3 3 3 2 3 5 9 8 11
9 6 6 8 8 7 8 9 11 12 9 8 12 12 15 15 13 8 7 7 8 7 6 6 5 5 4 8 12 10 9 11 20 21 22 18 13 13 12 12 11 10 8 8 8 8 6 6 5 5 5 7 6 4 3 7 9 8 4 5 5 5 5 3 3 2 1 2 3 3 1 2 3 4 5 8 4 3 2 4 4 1 2 4 4
Wind_Direction
160 164 154 164 155 157 159 159 140 141 134 131 136 131 123 124 125 124 118 116 109 99 89 72 60 49 75 83 68 66 68 72 75 66 47 59 61 35 31 32 122 122 131 128 124 125 124 120 119 117 111 106 107 105 104 105 103 100 99 98 95 93 90 88 86 83 79 78 76 73 71 68 67 64 63 60 57 55 51 49 46 46 41 46 44
164 161 164 168 166 162 166 168 158 154 146 144 151 137 134 129 124 124 123 122 119 123 112 95 77 64 52 77 60 46 49 59 55 60 50 60 60 42 33 39 109 131 137 130 125 130 125 127 122 120 120 118 115 111 109 110 107 105 104 102 99 98 95 92 89 85 82 80 77 74 73 69 68 66 61 58 55 54 54 49 47 44 43 43 44
166 166 170 166 169 171 178 169 163 165 154 145 146 142 139 138 142 141 135 125 113 113 114 105 91 79 64 69 59 59 51 40 47 34 54 48 57 51 35 45 52 91 149 136 134 132 131 135 132 129 125 126 122 120 120 116 115 114 110 106 104 101 98 92 88 85 83 79 77 75 73 67 62 61 60 56 50 49 52 47 43 43 40 36 33
172 170 171 170 173 176 175 177 178 167 157 147 143 139 134 124 117 118 119 114 110 94 88 108 96 88 85 73 58 68 54 36 37 50 55 42 35 47 46 40 53 55 44 130 143 143 144 141 142 136 136 140 138 129 126 122 123 123 117 112 108 106 100 96 87 86 83 79 73 68 69 69 67 66 64 57 50 49 51 44 44 40 37 35 31
180 178 176 176 173 170 177 188 176 166 155 149 136 128 119 115 103 109 109 111 111 101 86 85 102 93 91 79 73 45 45 60 35 36 52 42 30 16 29 33 51 52 53 43 102 150 147 149 149 151 151 143 131 137 133 133 135 127 123 121 120 115 108 103 94 87 88 87 79 76 74 70 65 61 63 58 51 49 48 41 41 38 33 32 27
180 182 179 177 177 178 178 183 177 166 153 150 145 144 136 133 135 123 127 131 129 125 119 106 96 99 87 85 79 61 47 50 51 51 39 53 29 25 10 21 37 47 46 46 43 36 140 157 150 155 157 139 146 142 142 140 140 127 132 132 123 120 117 113 109 99 90 88 86 80 72 71 66 61 59 56 51 48 44 37 35 33 28 26 24
185 181 185 183 179 183 185 185 172 163 161 163 148 145 144 147 148 134 126 120 128 138 135 131 131 116 100 102 89 78 60 41 40 48 44 42 59 49 21 20 22 38 35 53 37 45 33 52 175 161 153 151 146 149 151 151 142 141 131 104 112 121 120 118 105 103 97 88 82 78 75 64 61 59 60 55 51 46 38 33 29 26 23 22 16
185 185 184 191 193 184 184 176 171 164 162 159 152 153 155 146 162 148 140 148 142 141 134 131 122 114 93 90 94 90 82 50 30 35 36 54 65 54 54 42 20 22 35 43 47 38 39 41 48 42 84 170 156 157 164 156 155 150 146 141 137 130 133 131 129 121 111 109 95 86 75 67 59 55 51 50 47 42 36 29 25 18 15 17 14
186 185 187 190 196 202 192 177 168 171 167 168 171 165 155 156 162 176 157 154 159 149 142 137 129 118 110 95 82 99 92 77 59 63 350 58 48 51 49 54 40 28 27 40 48 40 36 42 50 47 35 33 185 171 168 166 165 160 158 151 150 152 142 137 118 118 128 118 109 90 82 66 60 48 47 43 36 34 30 21 19 15 9 5 4
193 187 188 193 196 199 190 185 179 171 169 173 181 171 166 160 162 177 167 155 161 160 155 143 130 120 93 63 40 54 60 70 46 49 67 98 47 62 48 53 63 61 44 49 54 53 52 40 44 45 36 29 45 44 58 175 172 169 166 173 160 150 149 146 138 133 132 122 115 105 76 59 47 42 35 28 21 16 15 11 7 5 3 1 356
198 196 190 183 191 193 189 180 183 186 170 169 169 174 174 175 166 166 161 161 159 154 143 135 120 103 83 31 22 12 3 16 18 29 55 61 111 69 83 42 53 35 47 47 49 70 73 51 59 46 25 31 34 39 37 30 172 178 174 176 178 157 161 159 155 161 150 156 129 91 55 35 21 19 12 9 3 355 356 355 353 355 353 351 352
194 197 207 195 191 194 191 180 178 181 184 176 174 179 184 180 181 162 150 118 103 118 122 123 97 85 84 76 43 7 6 358 2 359 340 162 133 171 119 154 83 27 25 12 47 71 81 84 76 69 51 31 35 41 42 39 51 88 186 178 186 172 164 169 166 156 165 156 158 179 332 357 351 347 345 344 345 343 343 343 342 343 344 343 341
199 190 196 199 197 192 180 191 194 182 184 194 190 190 188 182 165 160 156 147 138 143 149 139 128 82 40 52 63 41 349 332 296 271 253 280 279 169 181 164 169 159 185 336 84 88 99 98 95 95 81 58 32 32 40 27 23 69 66 94 192 175 173 178 176 172 194 173 166 185 191 285 311 319 328 329 331 333 333 334 334 335 336 334 334
202 198 191 193 194 193 191 183 184 203 193 183 172 168 171 173 156 142 167 161 160 167 165 136 185 176 155 177 356 329 277 287 270 257 257 278 285 275 220 202 199 198 174 242 174 132 129 112 107 105 94 90 73 62 40 31 4 25 44 46 78 178 179 180 178 184 182 213 255 256 242 261 285 304 310 323 323 325 326 326 328 328 327 327 324
199 198 195 192 195 195 198 194 189 187 184 170 164 172 179 178 176 171 156 141 130 178 177 188 139 96 78 84 256 141 246 248 252 248 232 228 241 251 246 238 228 219 243 261 249 243 219 149 124 119 116 114 112 92 74 45 30 31 35 31 19 237 188 192 188 192 188 193 217 254 273 277 280 289 301 307 314 313 318 320 319 321 320 317 318
204 201 203 209 203 198 190 185 188 192 192 181 178 183 179 180 181 185 166 156 170 191 200 191 148 139 168 200 157 151 315 239 207 232 198 215 209 223 231 238 235 242 272 229 228 238 255 281 159 154 151 139 123 102 87 78 51 54 42 28 12 16 204 189 193 197 203 200 208 234 256 273 281 283 292 300 304 308 310 315 315 315 314 313 315
205 203 203 205 208 212 197 193 193 195 198 195 189 190 186 187 184 178 183 177 181 183 198 204 194 206 137 131 90 270 226 5 128 244 181 229 231 219 222 237 234 231 223 234 228 233 239 242 221 205 184 166 151 135 128 105 90 58 57 37 16 10 15 155 189 193 207 216 222 235 251 261 269 279 287 294 301 307 309 312 312 311 309 311 312
221 213 204 207 213 209 214 210 204 202 201 203 196 190 193 191 190 187 189 192 179 169 192 216 212 215 227 250 154 181 182 179 138 238 26 235 251 221 223 222 219 218 220 222 218 222 215 216 212 210 201 193 179 169 157 169 175 182 124 203 209 128 22 53 144 191 213 223 231 243 256 266 274 283 293 298 302 306 311 309 309 307 306 307 307
225 222 220 215 216 214 214 215 212 214 211 205 197 195 195 195 187 191 193 181 160 183 188 194 202 233 226 220 134 161 189 135 204 81 268 233 216 223 233 226 232 236 229 221 216 216 221 219 213 211 207 198 190 184 178 186 190 183 196 204 199 192 196 199 221 238 237 237 243 252 263 273 283 292 299 302 305 306 305 305 304 306 305 305 306
224 223 225 218 214 219 208 206 208 201 193 204 210 206 199 200 194 198 186 184 186 189 192 182 186 213 209 216 214 21 230 311 210 196 166 172 228 216 244 226 222 233 230 226 219 210 212 218 219 216 211 206 194 190 189 189 194 199 211 212 207 201 201 201 210 228 243 252 257 268 275 283 292 298 301 303 302 302 302 303 305 305 306 304 306
222 226 225 228 220 212 211 212 208 208 199 212 212 200 197 188 186 191 196 195 196 204 190 197 202 212 176 215 208 206 219 243 311 256 173 187 234 188 212 159 242 243 227 224 227 210 211 213 217 217 212 209 201 197 194 188 191 195 207 214 214 210 210 212 215 223 233 245 264 273 281 290 295 298 298 299 301 300 301 303 305 306 305 305 304
220 221 224 219 221 222 216 218 215 203 195 208 204 196 195 196 198 199 200 197 198 199 202 200 205 209 192 190 190 169 180 239 242 218 266 241 210 197 197 186 211 237 204 220 220 213 208 210 217 225 221 214 210 205 200 194 190 190 204 212 217 217 218 220 222 226 232 245 256 266 275 282 289 293 297 298 299 300 302 303 303 303 303 303 305
224 229 226 227 233 229 231 230 232 241 218 203 210 208 202 196 195 201 209 206 203 203 209 207 201 203 198 189 197 193 198 200 205 198 190 190 233 239 195 201 213 235 204 214 213 220 213 207 216 221 223 222 218 215 208 201 189 194 195 207 216 221 223 226 230 231 234 238 244 251 260 269 280 288 292 295 297 299 300 300 301 302 301 302 302
238 238 236 233 238 240 232 232 234 232 231 223 218 212 208 215 213 204 207 215 220 214 212 205 200 205 209 210 213 211 220 223 210 190 187 208 198 216 185 169 251 229 59 186 194 207 218 219 215 220 221 225 223 222 220 204 201 194 188 204 216 222 225 225 227 231 235 240 246 254 261 267 275 282 287 292 294 296 298 300 302 301 302 301 301
224 226 224 215 223 234 237 237 239 235 239 233 226 218 208 199 202 205 208 207 209 205 209 216 205 199 207 212 214 208 215 217 180 188 207 210 196 194 77 154 183 197 179 159 213 208 211 220 208 209 207 217 221 223 224 219 210 197 186 202 214 225 229 235 237 239 240 244 251 259 268 275 279 283 287 291 293 295 299 301 302 303 304 303 300
218 222 217 218 222 229 234 239 240 240 237 239 234 223 210 207 206 207 208 210 206 207 210 213 216 217 215 216 214 215 218 213 210 185 196 186 200 198 155 68 54 235 62 220 225 187 238 220 205 202 203 206 212 214 221 223 223 199 191 189 215 223 229 233 238 244 250 256 261 265 268 273 279 283 287 291 295 298 300 301 302 305 303 301 301
218 224 211 211 219 222 228 234 231 231 228 228 228 224 217 213 209 212 212 209 209 208 211 210 213 213 215 213 214 216 218 211 203 213 201 201 195 170 153 153 208 191 232 208 231 224 241 207 204 206 203 200 201 203 209 214 214 201 196 192 201 223 231 233 238 243 250 256 262 266 271 277 282 287 290 296 300 301 301 301 303 304 304 303 303
221 210 214 207 213 218 221 227 227 228 229 228 223 221 216 214 216 216 218 208 209 209 216 214 218 216 217 215 214 222 219 212 208 212 204 194 174 160 168 179 186 235 185 232 220 246 213 225 211 214 204 202 201 203 194 197 204 200 196 196 196 211 229 237 243 248 253 260 265 270 274 280 285 290 296 299 299 300 301 303 303 300 299 298 297
219 207 214 211 214 215 220 223 224 225 229 229 226 222 216 215 217 217 222 213 214 213 213 216 220 216 218 213 215 220 219 216 210 206 197 181 186 178 182 189 193 204 189 222 228 227 216 200 210 217 203 200 201 196 196 205 199 189 196 193 195 199 222 234 244 252 258 262 267 271 277 282 286 289 293 296 297 300 301 299 298 298 298 299 299
210 212 209 214 216 216 221 224 222 222 226 228 227 227 222 222 220 222 220 210 214 215 216 218 220 216 221 221 218 225 210 195 204 197 184 191 184 187 195 200 180 199 197 206 243 188 221 203 211 206 183 200 195 195 198 204 192 186 190 188 192 202 218 230 242 251 256 262 269 273 278 283 286 289 292 295 298 300 301 300 299 299 300 302 303
215 210 212 216 215 218 219 225 222 224 224 229 227 227 223 229 224 227 219 215 216 218 218 214 219 213 218 220 216 222 203 206 198 193 197 189 196 194 199 193 198 201 191 186 234 244 173 201 219 191 171 195 190 187 190 197 190 188 186 186 195 201 209 227 238 249 256 263 270 275 279 283 288 292 294 296 299 300 301 302 302 301 301 301 302
216 211 214 214 212 216 219 221 224 224 221 225 225 227 224 231 226 224 221 213 220 220 218 214 214 212 215 218 214 214 208 204 201 201 201 202 200 198 198 198 202 196 175 186 213 225 186 217 202 186 170 179 178 181 188 184 188 189 186 185 179 177 205 221 241 249 257 265 270 276 283 288 292 294 296 297 299 300 302 301 299 299 303 306 307
206 216 217 216 213 214 216 218 218 220 216 220 219 220 225 232 229 224 223 218 223 225 218 218 213 212 215 220 220 218 206 207 209 204 203 203 199 204 200 196 200 193 181 189 207 221 336 71 26 205 150 145 170 182 176 177 181 183 162 171 165 183 198 221 233 250 256 264 271 277 280 285 292 296 296 296 298 301 301 301 303 308 309 307 308
203 218 219 215 213 212 217 219 218 221 220 218 215 214 224 229 233 222 221 215 222 228 217 222 214 213 213 219 223 219 208 212 208 207 203 200 197 200 198 198 204 199 197 181 206 181 197 53 124 30 140 167 146 170 182 174 174 157 173 167 164 179 202 211 231 243 253 262 268 272 280 290 294 295 297 301 303 305 306 308 310 312 313 314 314
216 219 217 213 212 213 218 221 217 218 216 215 212 213 223 225 227 228 223 219 221 222 220 221 215 208 213 217 223 217 204 209 212 212 201 202 195 199 203 199 201 194 185 187 153 184 180 199 143 166 175 163 154 176 172 153 149 158 158 164 175 181 198 209 231 256 265 264 269 279 286 290 294 298 302 305 307 309 312 314 317 319 319 318 316
223 223 217 216 213 215 220 222 219 219 216 212 214 217 223 223 226 229 225 223 223 223 223 222 217 209 213 216 222 213 199 207 211 207 197 193 192 200 198 193 191 184 188 189 203 147 172 161 195 177 175 157 143 127 129 114 125 129 140 121 124 165 182 196 218 241 254 266 276 282 285 291 298 303 308 312 315 318 320 321 320 320 320 319 320
224 217 223 215 218 218 222 222 222 222 219 211 215 221 222 222 226 229 228 227 226 226 225 223 219 214 215 217 219 209 198 207 207 203 193 195 193 186 191 184 179 176 175 185 188 154 156 181 153 145 132 116 107 104 132 130 106 88 81 113 143 171 206 218 212 232 256 274 278 281 290 298 307 315 320 323 323 322 321 320 321 323 324 325 325
228 222 217 213 214 222 224 228 225 227 219 216 217 219 218 218 223 227 230 230 230 229 228 227 224 219 219 220 218 204 200 203 205 199 191 196 185 187 186 181 180 172 173 181 174 178 177 179 159 131 151 157 110 95 115 114 122 118 110 118 141 185 194 240 213 204 210 227 262 282 295 308 313 319 328 327 320 318 321 324 325 327 328 326 323
227 227 224 220 216 216 225 224 227 225 221 218 221 221 218 216 218 223 229 231 232 232 231 231 228 225 223 222 216 202 202 205 201 193 189 186 182 189 185 182 175 165 169 161 157 164 160 142 112 134 132 79 112 118 92 97 92 133 159 149 248 198 190 204 269 213 191 243 260 267 278 290 307 321 324 320 318 320 325 328 329 326 324 320 319
225 227 224 221 222 213 222 222 225 221 221 224 224 220 216 213 212 221 223 228 233 235 235 233 228 226 223 220 213 204 203 202 198 194 180 183 180 182 185 166 165 167 164 153 151 150 138 137 149 154 165 130 97 78 106 110 104 99 160 161 203 215 216 178 213 237 255 179 267 306 315 343 339 328 315 308 305 311 322 323 315 316 317 318 318
228 228 226 219 220 224 225 221 223 217 220 225 223 216 214 214 212 216 219 224 226 233 236 234 229 225 223 218 212 206 204 202 200 191 189 182 173 180 180 169 169 167 153 147 144 135 140 154 133 123 140 136 150 146 150 168 186 182 162 153 202 224 208 276 267 224 228 251 305 352 309 288 304 288 278 282 279 287 302 304 306 307 307 312 312
230 225 227 220 221 224 223 224 221 219 224 225 222 220 215 211 207 213 216 222 224 228 229 231 231 224 223 216 216 208 203 202 199 196 192 189 190 182 170 170 169 165 157 147 155 161 162 169 168 156 156 176 177 181 177 170 128 111 119 148 183 211 77 282 285 247 160 138 130 289 278 280 233 269 262 252 271 284 282 295 281 289 296 305 311
228 226 220 223 226 226 224 222 222 224 227 226 222 220 219 214 210 212 214 219 217 223 223 223 226 222 222 217 215 207 204 203 202 197 190 189 188 180 177 179 174 163 157 162 164 162 169 170 165 161 172 178 186 168 170 146 154 167 167 169 169 155 182 209 266 320 200 142 193 187 280 267 218 248 254 248 262 271 268 270 282 300 305 310 314
231 220 222 225 229 227 229 230 229 228 231 227 225 224 220 217 213 213 212 213 211 213 215 217 220 216 214 210 210 202 201 200 186 182 181 180 177 149 149 164 162 170 160 159 161 172 172 154 164 176 159 178 166 168 168 153 164 161 165 163 171 174 192 199 213 209 218 132 170 230 267 268 231 229 236 249 248 246 257 264 294 309 309 312 316
225 221 228 226 231 226 226 230 233 230 233 223 225 224 222 222 221 217 222 217 211 212 209 210 210 209 207 204 197 188 192 182 171 166 161 164 163 155 153 150 154 162 172 180 181 174 167 154 155 161 179 157 157 185 174 163 151 159 159 174 185 179 188 199 216 216 226 135 66 253 254 262 193 222 225 250 241 247 255 277 298 306 311 314 315
225 231 228 228 229 225 223 226 232 231 230 222 222 222 221 221 221 216 221 213 218 216 214 208 206 203 198 193 184 184 176 171 169 167 164 160 153 145 143 140 144 150 161 158 130 121 132 142 147 168 185 161 175 156 161 150 152 167 163 180 169 180 191 215 216 201 243 117 214 243 278 260 208 217 270 264 235 241 251 260 294 310 312 314 318
226 228 227 228 229 227 227 226 232 233 230 219 221 221 221 220 218 217 217 214 215 217 216 212 204 198 192 190 185 178 170 173 173 164 161 161 156 152 149 153 147 138 135 144 147 138 125 121 141 143 154 160 126 131 144 149 147 150 157 165 179 179 167 57 23 332 286 251 175 161 254 212 255 259 255 254 247 248 257 267 300 305 311 321 327
239 240 243 231 234 229 226 224 229 237 230 217 220 221 220 216 210 213 213 210 214 215 214 207 202 196 190 185 183 178 173 174 174 168 165 155 151 146 140 134 129 128 127 100 111 115 121 124 125 130 136 144 135 124 138 140 138 132 132 118 93 94 122 215 233 280 228 272 183 196 263 283 230 311 275 265 267 267 284 283 284 313 327 332 330
238 235 236 231 231 230 227 221 225 235 232 218 218 219 215 207 203 208 204 208 213 215 213 201 198 191 188 186 177 176 181 180 176 170 159 153 147 146 143 145 150 144 124 115 119 125 126 124 124 124 130 143 150 155 161 166 162 157 140 137 178 148 160 199 230 200 254 215 301 343 302 303 21 344 306 265 328 287 270 265 8 7 350 340 332
242 240 236 243 238 230 228 227 222 230 233 216 216 217 213 208 201 204 202 206 213 213 208 191 187 187 187 178 180 174 173 171 175 169 159 155 157 162 161 156 152 139 133 127 129 139 142 135 133 139 151 164 172 176 176 179 187 170 152 175 186 146 181 206 224 219 247 215 47 341 72 277 5 350 322 301 275 248 214 157 86 12 352 338 331
250 248 237 241 245 236 234 234 228 229 235 223 217 210 211 209 206 204 200 202 208 204 185 187 184 179 171 179 175 165 167 170 176 171 167 168 170 167 157 150 153 158 162 155 150 142 143 132 135 143 163 174 172 134 119 133 97 112 143 156 160 154 179 200 217 235 238 156 41 7 67 292 24 339 6 339 322 268 176 81 30 72 345 311 334